Location: *
(23.5860°S, 65.4036°W)
Time: 01:20:52
(UTC+00:00)

Cosmos 1812 - Pass Details

Date: 25 August 2019
Orbit: 517 x 523 km, 82.5° (Epoch: 19 September)

Event Time Altitude Azimuth Distance (km) Brightness Sun altitude
Rises 23:37:17 0° 347° (NNW) 2,623 6.5 -21.0°
Reaches altitude 10° 23:39:25 10° 342° (NNW) 1,744 5.6 -21.5°
Maximum altitude 23:43:10 54° 264° (W) 639 3.4 -22.3°
Drops below altitude 10° 23:46:58 10° 186° (S) 1,766 5.4 -23.2°
Sets 23:49:10 0° 181° (S) 2,662 6.3 -23.7°
